Location: Unspecified
(0.0000°N, 0.0000°E)
Time: 21:42:45
(UTC+02:00)

Iridium 76 - Visible Passes

Search period start: 25 October 2014 00:00
Search period end: 03 November 2014 23:00
Orbit: 776 x 779 km, 86.4° (Epoch: 25 October)

Date Brightness Start Highest point End Pass type
(mag) Time Alt. Az. Time Alt. Az. Time Alt. Az.
26 Oct 8.2 05:45:37 10° NE 05:49:38 23° E 05:53:40 10° SE visible
27 Oct 8.6 19:27:11 10° SW 19:30:09 15° W 19:33:06 10° NW visible
29 Oct 7.2 05:44:56 10° NNE 05:49:41 37° E 05:54:27 10° SSE visible
30 Oct 8.4 05:13:00 10° NE 05:16:14 17° E 05:19:28 10° SE visible
01 Nov 6.1 05:44:36 10° N 05:49:43 60° E 05:54:51 10° S visible
02 Nov 7.7 05:11:56 10° NNE 05:16:16 27° E 05:20:36 10° SSE visible
03 Nov 8.6 04:40:58 10° ENE 04:42:48 12° E 04:44:39 10° ESE visible
